{"data":{"norad_id":62401,"intl_designator":"2024-247AA","name":"CTC-0","alt_names":[],"object_type":"PAYLOAD","status":"ACTIVE","operator":null,"country":"US","launch_date":"2024-12-21","launch_site_code":"AFWTR","launch_vehicle":null,"mission":null,"orbit_class":"UNKNOWN","rcs_meters":null,"size_class":null,"mass_kg":null,"dimensions":null,"purposes":[],"wikipedia_slug":null,"has_3d_model":false,"image_url":null,"decayed_at":null,"tle_current":{"epoch":"2026-05-25T02:23:45.870144Z","epoch_age_seconds":63107,"freshness":"FRESH","line1":"1 62401U 24247AA  26145.09983646  .00017461  00000+0  45643-3 0  9998","line2":"2 62401  44.9739  38.4470 0006127 151.6471 208.4750 15.38570684 79669","mean_motion":15.38570684,"eccentricity":0.0006127,"inclination_deg":44.9739,"raan_deg":38.447,"arg_perigee_deg":151.6471,"mean_anomaly_deg":208.475,"bstar":0.00045643,"rev_number":7966,"period_min":93.593360056508,"perigee_km":446.15129442787,"apogee_km":454.51890413833,"semimajor_km":6828.4720992831,"source":"CELESTRAK","updated_at":"2026-05-25T13:38:02.970732Z"}}}